Wind_Speed
9 8 7 6 5 4 4 5 6 6 7 9 10 11 12 12 14 14 14 15 16 17 18 19 19 18 20 21 19 16 15 14 9 24 24 25 31 33 36 37 34 34 33
9 8 7 6 5 4 5 5 5 6 7 9 10 12 12 14 16 16 16 16 18 18 18 17 18 17 18 18 16 16 15 14 17 22 26 26 25 28 32 34 33 33 35
11 9 8 7 5 5 6 6 6 7 9 10 11 13 11 13 15 17 16 16 16 15 15 17 18 18 18 20 15 15 14 16 16 20 24 24 26 28 33 30 32 32 32
12 10 8 7 7 6 7 8 8 9 10 11 12 13 11 12 15 17 15 16 15 14 15 16 17 16 19 18 16 18 18 19 18 17 20 22 24 27 25 31 38 32 37
13 11 9 8 8 8 8 9 9 10 10 10 11 12 11 13 16 16 14 14 14 15 16 17 15 14 16 15 18 21 21 20 19 19 19 20 23 27 27 31 32 38 39
15 13 11 10 9 10 9 10 10 11 10 9 10 10 11 12 12 14 12 13 14 14 15 17 15 15 16 17 18 19 17 18 19 19 17 19 22 26 28 28 31 32 13
18 16 14 13 11 11 10 10 10 10 9 9 9 9 9 9 10 12 12 13 12 15 15 15 14 15 19 21 23 22 20 17 17 18 18 21 26 28 30 31 28 31 33
20 17 15 14 13 12 10 10 9 8 8 7 7 7 7 7 9 10 10 10 8 11 13 13 13 15 18 23 25 22 20 21 21 21 23 26 29 30 29 29 31 35 34
21 19 16 15 14 12 11 9 8 8 6 6 6 5 6 5 9 10 10 10 9 11 12 12 12 15 19 24 23 21 21 20 20 23 22 25 24 25 23 29 26 28 27
22 19 16 14 13 11 9 9 7 7 6 5 5 4 4 3 8 9 10 9 9 11 12 11 14 18 22 23 22 20 20 23 27 26 27 28 28 24 22 22 24 24 25
22 18 15 14 13 10 9 7 7 6 4 4 5 4 4 4 7 8 9 10 12 12 12 12 14 19 22 21 19 16 22 26 25 21 23 23 22 22 26 26 26 27 28
20 21 17 14 11 10 9 8 7 5 4 4 4 3 2 4 6 7 8 11 13 13 14 14 16 20 21 19 16 20 21 22 26 24 23 23 23 25 27 28 29 28 30
14 13 15 15 10 8 8 8 7 5 4 3 3 2 3 5 6 7 8 12 13 14 15 16 18 19 17 14 16 18 19 20 21 21 21 22 23 27 28 30 30 28 32
16 12 9 12 11 8 6 6 6 5 4 2 1 2 5 7 7 8 9 17 16 15 15 19 20 18 14 13 15 16 16 17 18 19 23 25 26 25 25 28 32 33 33
13 10 7 7 9 9 7 5 4 3 2 1 3 4 6 9 9 10 12 15 17 15 19 22 22 21 20 17 16 16 18 19 18 20 23 26 26 27 26 28 30 32 28
14 11 10 8 7 6 5 4 3 2 3 4 4 5 6 8 10 11 12 14 14 13 16 17 17 16 15 15 16 17 18 21 21 22 22 23 26 27 28 30 28 28 29
15 14 9 6 5 5 4 3 3 5 4 2 2 4 6 9 10 11 12 12 12 14 15 16 16 17 19 18 17 17 19 20 23 22 22 24 25 26 27 27 27 27 29
11 10 10 8 6 5 5 6 6 7 7 8 5 7 7 8 10 11 11 13 17 16 16 17 19 19 21 22 22 22 23 25 25 25 24 27 28 25 26 26 26 27 29
12 10 9 8 8 8 8 8 8 8 10 12 13 10 8 10 11 10 8 14 21 20 18 20 20 21 23 24 25 25 26 28 28 29 28 27 27 25 25 26 28 30 30
12 10 10 10 10 10 10 10 10 10 12 13 15 16 14 13 15 17 18 22 22 21 21 22 23 23 24 25 26 26 27 29 29 29 29 28 28 25 25 27 27 28 29
12 12 11 11 12 12 12 12 12 13 14 15 18 15 13 16 19 23 24 22 21 21 22 23 24 25 26 26 26 27 27 30 30 30 30 30 29 27 28 28 29 29 30
12 12 13 14 12 13 14 14 14 15 16 19 20 18 15 18 21 23 23 23 22 22 23 24 25 26 26 26 27 27 29 31 31 30 30 31 31 30 30 28 29 29 30
14 15 15 15 15 14 15 16 17 18 20 20 21 22 22 24 23 24 25 25 25 25 24 24 26 27 27 27 26 27 29 31 31 30 31 31 33 33 30 28 29 28 28
15 15 15 15 15 17 19 21 20 21 22 23 24 25 25 25 26 27 27 28 27 27 26 27 27 28 28 28 28 28 29 30 30 31 29 31 32 33 33 30 28 29 31
15 15 17 18 19 21 21 23 23 24 24 25 27 27 27 27 28 29 30 29 29 29 28 28 29 30 29 29 29 29 29 29 29 28 27 26 29 33 35 31 30 30 29
17 17 18 18 20 22 23 24 24 25 27 27 28 28 29 30 31 31 32 31 31 31 30 30 31 31 31 31 31 30 29 27 26 24 25 28 29 29 28 30 30 29 29
Wind_Direction
164 158 149 132 123 109 81 57 43 31 30 34 42 50 54 47 42 47 47 43 46 43 39 35 32 26 22 22 24 17 2 353 316 315 320 326 332 336 334 334 334 328 321
173 170 158 146 134 116 92 69 57 52 51 58 61 67 64 51 45 46 46 52 50 41 34 33 26 21 26 16 14 7 360 346 326 311 320 327 328 327 327 326 326 327 324
183 180 169 159 146 128 108 94 85 80 77 76 72 72 71 49 45 45 52 51 47 41 33 27 23 26 16 17 18 7 357 343 330 317 316 324 326 331 330 325 325 323 318
187 182 173 165 149 138 121 110 103 95 91 83 78 80 78 52 41 40 51 49 43 35 29 27 25 21 11 16 7 2 350 341 334 327 322 326 331 333 335 332 326 325 319
184 179 173 168 156 141 127 118 110 103 94 87 86 86 79 54 43 31 43 40 34 31 19 17 23 3 13 9 3 354 347 338 333 333 329 330 336 339 338 330 319 320 320
185 178 175 172 159 145 135 126 121 111 104 96 85 82 87 61 46 35 33 34 29 22 13 8 12 360 4 357 352 347 342 337 333 331 328 328 327 325 323 322 319 319 316
184 181 178 174 163 149 142 132 122 114 110 97 89 85 89 65 41 33 30 25 20 10 7 1 359 357 356 352 347 342 340 337 335 331 329 326 321 322 319 317 313 306 298
181 180 176 173 164 153 145 132 123 119 111 101 89 80 76 76 42 31 29 22 24 3 1 356 354 350 350 348 344 339 335 331 334 332 328 323 320 320 319 313 309 304 300
178 181 178 175 166 159 150 141 129 123 112 103 94 75 62 61 37 23 18 16 9 358 350 348 353 345 347 344 343 336 329 327 328 322 318 317 316 317 319 322 321 322 314
177 179 178 173 166 162 156 150 136 132 129 124 107 82 91 15 28 20 15 8 354 350 348 340 343 346 343 343 341 335 329 331 330 327 327 327 328 328 325 324 320 316 313
177 175 174 171 167 165 155 149 133 127 120 118 115 101 95 1 14 15 7 4 349 342 343 336 335 339 335 337 338 338 330 327 329 330 328 327 328 326 326 323 315 308 300
175 171 170 167 165 164 155 145 136 137 139 132 118 104 75 12 10 2 355 353 338 337 334 327 330 332 333 335 340 337 335 332 339 334 328 327 327 324 321 315 307 299 291
176 179 166 160 164 162 152 143 140 143 136 127 95 71 353 333 341 349 337 340 335 326 326 323 326 330 336 342 343 342 342 339 334 328 322 319 320 318 318 318 314 310 303
165 173 186 160 151 157 151 144 148 136 141 126 58 344 321 324 325 350 336 332 336 325 322 324 328 334 341 342 344 345 342 335 326 321 318 318 320 323 324 325 319 322 315
157 167 190 179 153 156 158 156 149 161 196 286 309 308 305 309 317 321 318 323 322 325 317 321 334 344 345 342 336 334 334 334 328 325 322 320 322 325 326 327 319 318 315
159 175 188 190 176 167 168 173 165 180 223 254 277 286 297 298 305 310 313 317 318 325 319 331 338 336 326 322 321 322 326 330 326 322 319 317 319 322 321 321 319 317 313
171 174 186 191 191 191 195 206 243 236 248 249 283 309 305 306 304 304 307 309 313 322 321 330 325 321 319 316 314 313 312 315 321 319 315 313 316 316 317 315 315 313 311
176 171 183 198 207 217 224 231 251 259 282 290 281 313 312 301 297 296 302 289 308 320 320 319 314 317 317 316 316 315 314 318 319 318 312 314 315 311 311 310 311 310 309
194 188 194 206 219 226 233 248 246 261 275 289 301 302 297 301 298 298 298 303 317 313 312 311 315 314 314 316 315 314 315 314 314 314 314 312 310 308 304 305 306 306 306
200 201 206 217 225 232 240 246 251 262 273 278 287 299 311 319 318 316 309 309 309 306 309 311 313 311 312 312 311 312 310 310 311 311 310 310 310 307 300 303 303 305 306
209 212 219 226 228 239 243 251 262 266 271 283 292 303 301 300 296 291 296 300 303 305 307 307 307 307 307 309 308 307 305 305 305 306 308 309 308 301 304 301 300 301 301
219 226 232 239 243 246 254 262 269 277 284 288 294 298 296 284 288 294 298 300 304 303 304 303 302 302 303 304 304 302 300 300 302 304 305 306 303 301 302 299 298 300 302
225 230 237 245 251 260 266 271 275 280 283 288 294 296 299 298 298 298 299 301 304 304 303 301 300 301 303 304 303 301 296 297 300 301 298 299 301 300 298 294 295 297 299
229 236 244 253 261 267 269 274 278 281 286 290 293 295 295 295 296 298 299 301 302 302 302 301 300 300 301 302 303 301 299 300 300 298 296 293 294 299 299 293 290 292 299
239 247 253 259 265 268 272 273 278 283 286 288 291 293 294 295 296 298 300 300 301 300 301 302 300 301 302 302 301 302 302 299 295 290 289 292 294 298 296 288 288 293 296
239 248 258 265 267 270 271 276 281 285 286 290 292 293 293 295 297 298 299 300 300 301 301 300 300 300 300 300 301 305 304 302 296 296 298 291 284 279 280 285 288 291 295
Height
820 818 818 818 818 818 818 819 820 819 819 819 819 819 819 818 818 817 816 816 815 814 813 812 812 811 810 810 809 808 807 805 801 790 789 785 779 774 769 765 758 755 751
817 817 816 816 816 816 816 816 817 818 819 819 819 820 820 820 819 818 818 817 816 816 815 814 813 812 811 810 808 807 807 806 802 791 786 781 778 774 767 761 754 749 748
815 814 814 814 814 815 815 815 816 817 818 819 819 819 820 820 820 819 819 818 817 817 816 815 813 812 810 808 807 806 805 802 798 793 785 782 776 771 761 757 750 745 742
812 812 813 813 812 814 813 813 815 816 818 818 818 819 820 820 820 819 818 818 818 817 816 814 813 811 810 808 807 804 803 799 795 791 785 780 775 770 764 756 741 743 735
809 811 812 813 812 812 812 812 814 815 817 818 819 819 819 819 820 819 818 817 816 815 815 814 812 812 810 809 806 804 802 799 794 788 784 780 774 767 764 759 751 739 731
806 808 810 812 812 811 812 812 813 814 816 817 817 818 819 820 820 819 819 818 816 815 814 812 811 810 808 807 805 803 801 796 794 789 785 781 777 773 767 761 753 744 728
801 805 807 809 810 810 812 811 812 813 815 815 816 817 818 820 820 818 817 817 816 815 814 813 811 808 807 804 801 798 797 794 791 787 784 783 776 773 767 757 753 747 737
797 800 803 805 807 808 809 809 811 812 812 813 815 816 816 816 817 817 815 815 814 815 813 812 811 810 807 802 798 796 792 791 786 784 780 778 774 769 766 759 750 741 730
792 796 800 803 804 804 805 807 808 810 812 812 813 815 816 817 815 817 814 813 813 812 811 811 807 807 805 802 796 793 790 787 784 781 776 774 770 766 762 754 747 739 721
788 791 796 798 800 802 803 805 806 807 808 811 810 811 811 814 812 814 813 813 814 812 809 810 805 804 801 798 794 790 785 782 778 773 768 764 762 759 757 753 747 739 732
784 789 792 795 797 799 801 803 803 805 809 810 809 809 808 810 810 812 812 810 812 809 807 806 803 801 800 797 792 787 783 779 774 768 764 761 758 754 749 746 744 741 733
784 783 788 792 795 796 798 799 800 803 806 808 807 807 808 808 809 810 808 809 809 806 806 804 800 798 796 793 787 784 780 774 769 766 762 759 755 750 746 742 739 734 728
789 793 787 787 793 796 795 796 799 801 804 806 804 805 806 807 806 807 806 806 805 804 803 800 796 793 790 787 784 780 775 772 769 765 761 757 752 747 741 735 729 724 715
784 792 798 788 788 793 796 796 797 798 801 803 803 803 805 806 805 803 804 803 801 800 797 793 791 788 786 785 781 778 775 771 768 763 758 753 747 742 737 731 720 714 706
782 790 798 796 789 792 794 795 795 795 798 800 800 801 802 803 802 801 801 800 798 796 791 788 785 783 781 780 779 776 772 768 764 760 754 748 742 737 731 726 720 711 704
780 788 792 795 792 790 791 793 795 795 797 798 798 799 799 799 798 798 797 797 794 792 787 786 783 781 780 778 776 772 768 764 761 756 752 746 740 733 727 723 717 710 700
776 780 788 792 792 791 791 792 794 795 795 795 795 795 795 795 795 794 794 792 788 787 785 782 781 780 777 774 771 768 764 761 757 752 748 743 737 732 727 721 714 708 697
781 779 783 788 789 789 790 791 792 793 792 790 790 790 791 791 791 790 789 785 783 782 780 779 777 774 773 768 766 762 759 755 751 747 743 739 734 730 724 718 712 704 695
779 778 780 783 786 787 788 788 790 789 789 787 785 786 787 786 785 785 784 781 779 776 775 773 770 768 766 762 759 756 753 749 746 742 738 734 730 726 720 714 707 700 693
776 776 778 781 782 783 785 786 786 786 785 784 782 782 781 780 777 777 776 774 773 771 768 765 763 761 758 756 753 750 746 743 739 736 732 728 724 721 715 709 703 696 687
773 774 776 777 780 781 782 782 782 781 780 779 777 776 776 776 773 772 770 768 766 764 761 759 757 754 751 749 745 743 740 736 733 729 725 721 718 713 710 704 697 690 682
770 772 774 776 777 777 777 777 776 775 774 773 771 770 770 769 767 765 763 761 760 758 755 752 749 746 744 741 738 735 732 729 725 722 719 715 711 707 703 698 691 685 677
767 769 770 771 772 773 772 771 770 769 768 767 765 763 762 761 759 757 755 753 751 749 747 744 741 737 735 733 731 728 724 720 718 715 712 709 704 700 696 692 685 679 672
763 764 765 766 767 766 766 766 765 763 761 759 758 756 755 754 752 749 747 745 742 739 737 734 732 729 726 724 722 719 715 712 709 706 704 701 697 692 688 684 679 673 667
759 760 760 760 760 760 761 760 758 756 754 752 751 749 747 746 743 740 738 736 733 730 728 725 722 719 717 715 712 709 706 703 700 697 695 693 689 685 680 677 672 667 661
754 754 754 754 754 754 753 752 750 748 746 745 743 741 740 737 734 731 729 726 723 720 717 715 713 710 708 705 702 699 696 692 689 687 687 684 681 678 674 670 665 660 654